Location: Csohesd
(46.2500°N, 22.6167°E)
Time: 13:13:27
(UTC+00:00)

USA 267 - Pass Details

Date: 21 October 2021
Orbit: 1101 x 1107 km, 123.0° (Epoch: 27 November)

Event Time Altitude Azimuth Distance (km) Brightness Sun altitude
Rises 16:33:46 0° 146° (SE) 3,905 5.8 -11.3°
Reaches altitude 10° 16:36:20 10° 151° (SSE) 2,950 5.3 -11.7°
Maximum altitude 16:42:37 50° 226° (SW) 1,367 4.1 -12.8°
Drops below altitude 10° 16:48:57 10° 301° (WNW) 2,963 6.4 -13.9°
Sets 16:51:33 0° 307° (NW) 3,924 7.1 -14.3°
